DAL147A KATL-SCEL

Flight info

Callsign DAL147A
Flight time N/A
Altitude 37000
Route SMLTZ3 WALET DCT ZPLEN Q79 VAULT/N0485F380 Q79 MCLAW Y442 FUNDI/N0486F370 UM335 LEPON DCT ARNAL/N0487F390 UL465 TBG UM542 AKTUK DCT MIPAS DCT ISREN DCT TOPIX DCT ILMAR/N0479F410 DCT IREMI UL302 TOY DCT EMBAL DCT SIMOK SIMOK7B
Aircraft A359/H-SDE2E3GHIJ3J4J5LM1ORWXY/LB1D1

Departure

Time N/A
Airport Hartsfield Jackson Atlanta International Airport (KATL)

Arrival

Time 2026-05-06 13:29
Airport Comodoro Arturo Merino Benítez International Airport (SCEL)
Time Latitude Longitude Altitude Speed Heading
2026-05-06 13:09 -31.65069 -70.85430 26755 ft 425 kts 192°
2026-05-06 13:09 -31.68052 -70.85392 26351 ft 422 kts 192°
2026-05-06 13:10 -31.70950 -70.85352 25936 ft 420 kts 192°
2026-05-06 13:10 -31.73866 -70.85314 25510 ft 418 kts 192°
2026-05-06 13:10 -31.76772 -70.85279 25073 ft 418 kts 191°
2026-05-06 13:10 -31.79683 -70.85183 24616 ft 418 kts 190°
2026-05-06 13:11 -31.82588 -70.85057 24177 ft 416 kts 190°
2026-05-06 13:11 -31.85477 -70.84940 23729 ft 414 kts 190°
2026-05-06 13:11 -31.88348 -70.84834 23241 ft 411 kts 190°
2026-05-06 13:11 -31.91191 -70.84728 22793 ft 406 kts 189°
2026-05-06 13:12 -31.93996 -70.84621 22371 ft 401 kts 190°
2026-05-06 13:12 -31.96773 -70.84523 21932 ft 399 kts 190°
2026-05-06 13:12 -31.99536 -70.84429 21502 ft 396 kts 190°
2026-05-06 13:12 -32.02283 -70.84338 21065 ft 394 kts 189°
2026-05-06 13:13 -32.05018 -70.84243 20640 ft 391 kts 189°
2026-05-06 13:13 -32.07724 -70.84139 20218 ft 386 kts 189°
2026-05-06 13:13 -32.10407 -70.84033 19795 ft 385 kts 189°
2026-05-06 13:13 -32.13054 -70.83944 19388 ft 385 kts 189°
2026-05-06 13:14 -32.15724 -70.83854 18970 ft 384 kts 189°
2026-05-06 13:14 -32.18393 -70.83761 18540 ft 384 kts 188°
2026-05-06 13:14 -32.21057 -70.83664 18171 ft 380 kts 187°
2026-05-06 13:14 -32.23694 -70.83570 17722 ft 378 kts 187°
2026-05-06 13:15 -32.26323 -70.83478 17283 ft 378 kts 187°
2026-05-06 13:15 -32.28957 -70.83381 16839 ft 376 kts 187°
2026-05-06 13:15 -32.31556 -70.83287 16432 ft 372 kts 186°
2026-05-06 13:15 -32.34139 -70.83194 16037 ft 370 kts 186°
2026-05-06 13:16 -32.36704 -70.83104 15635 ft 368 kts 186°
2026-05-06 13:16 -32.39259 -70.83014 15228 ft 367 kts 186°
2026-05-06 13:16 -32.41811 -70.82925 14832 ft 367 kts 185°
2026-05-06 13:16 -32.44335 -70.82836 14429 ft 367 kts 185°
2026-05-06 13:17 -32.46888 -70.82744 14022 ft 366 kts 185°
2026-05-06 13:17 -32.49426 -70.82651 13592 ft 363 kts 184°
2026-05-06 13:17 -32.51927 -70.82555 13195 ft 357 kts 184°
2026-05-06 13:17 -32.54384 -70.82467 12818 ft 349 kts 184°
2026-05-06 13:18 -32.56808 -70.82384 12441 ft 348 kts 184°
2026-05-06 13:18 -32.59242 -70.82299 12128 ft 355 kts 182°
2026-05-06 13:18 -32.61724 -70.82202 11656 ft 357 kts 182°
2026-05-06 13:18 -32.64217 -70.82104 11240 ft 358 kts 182°
2026-05-06 13:19 -32.66664 -70.82009 11007 ft 344 kts 184°
2026-05-06 13:19 -32.69007 -70.81966 10916 ft 331 kts 183°
2026-05-06 13:19 -32.71269 -70.81880 10802 ft 320 kts 182°
2026-05-06 13:19 -32.73452 -70.81787 10634 ft 308 kts 183°
2026-05-06 13:20 -32.75546 -70.81706 10353 ft 303 kts 182°
2026-05-06 13:20 -32.77643 -70.81631 10057 ft 299 kts 182°
2026-05-06 13:20 -32.79713 -70.81555 9777 ft 296 kts 182°
2026-05-06 13:20 -32.81770 -70.81481 9508 ft 296 kts 182°
2026-05-06 13:21 -32.83825 -70.81406 9246 ft 295 kts 182°
2026-05-06 13:21 -32.85868 -70.81330 8984 ft 293 kts 182°
2026-05-06 13:21 -32.87897 -70.81254 8724 ft 292 kts 182°
2026-05-06 13:21 -32.89925 -70.81182 8467 ft 290 kts 182°
2026-05-06 13:22 -32.91938 -70.81164 8163 ft 287 kts 187°
2026-05-06 13:22 -32.93904 -70.81391 7926 ft 282 kts 191°
2026-05-06 13:22 -32.95849 -70.81685 7684 ft 280 kts 191°
2026-05-06 13:22 -32.97780 -70.81981 7435 ft 280 kts 192°
2026-05-06 13:23 -32.99721 -70.82272 7163 ft 281 kts 190°
2026-05-06 13:23 -33.01653 -70.82337 6930 ft 282 kts 181°
2026-05-06 13:23 -33.03612 -70.82247 6652 ft 281 kts 180°
2026-05-06 13:23 -33.05562 -70.82135 6458 ft 281 kts 179°
2026-05-06 13:24 -33.07514 -70.82016 6076 ft 281 kts 179°
2026-05-06 13:24 -33.09457 -70.81899 5695 ft 279 kts 179°
2026-05-06 13:24 -33.11384 -70.81787 5387 ft 275 kts 178°
2026-05-06 13:24 -33.13287 -70.81672 5081 ft 272 kts 177°
2026-05-06 13:25 -33.15153 -70.81539 4996 ft 267 kts 177°
2026-05-06 13:25 -33.17003 -70.81433 4991 ft 265 kts 178°
2026-05-06 13:25 -33.18838 -70.81337 4990 ft 262 kts 178°
2026-05-06 13:25 -33.20615 -70.81250 4875 ft 250 kts 178°
2026-05-06 13:26 -33.22348 -70.81166 4580 ft 249 kts 178°
2026-05-06 13:26 -33.24067 -70.81073 4215 ft 243 kts 178°
2026-05-06 13:26 -33.25720 -70.80984 3890 ft 232 kts 178°
2026-05-06 13:26 -33.27285 -70.80901 3603 ft 217 kts 178°
2026-05-06 13:27 -33.28738 -70.80825 3291 ft 200 kts 177°
2026-05-06 13:27 -33.30082 -70.80753 3034 ft 189 kts 176°
2026-05-06 13:27 -33.31351 -70.80685 2782 ft 180 kts 178°
2026-05-06 13:27 -33.32574 -70.80620 2530 ft 173 kts 178°
2026-05-06 13:28 -33.33751 -70.80557 2292 ft 166 kts 179°
2026-05-06 13:28 -33.34885 -70.80497 2068 ft 160 kts 178°
2026-05-06 13:28 -33.35980 -70.80439 1853 ft 155 kts 178°
2026-05-06 13:28 -33.36687 -70.80401 1712 ft 152 kts 179°
2026-05-06 13:29 -33.37719 -70.80347 1580 ft 143 kts 180°
2026-05-06 13:29 -33.38590 -70.80300 1580 ft 106 kts 178°
2026-05-06 13:29 -33.39194 -70.80266 1579 ft 68 kts 178°
2026-05-06 13:29 -33.39529 -70.80248 1577 ft 29 kts 178°
2026-05-06 13:30 -33.39666 -70.80243 1578 ft 19 kts 178°
2026-05-06 13:30 -33.39810 -70.80234 1579 ft 22 kts 177°
2026-05-06 13:30 -33.39956 -70.80169 1578 ft 19 kts 149°
2026-05-06 13:30 -33.40040 -70.80106 1576 ft 16 kts 146°
2026-05-06 13:31 -33.40115 -70.80043 1574 ft 15 kts 147°
2026-05-06 13:31 -33.40221 -70.79996 1573 ft 16 kts 176°
2026-05-06 13:31 -33.40343 -70.79986 1573 ft 18 kts 176°
2026-05-06 13:31 -33.40460 -70.79977 1573 ft 13 kts 176°
2026-05-06 13:32 -33.40488 -70.79960 1572 ft 2 kts 105°
2026-05-06 13:32 -33.40489 -70.79891 1571 ft 11 kts 88°
2026-05-06 13:32 -33.40485 -70.79796 1571 ft 8 kts 86°
2026-05-06 13:32 -33.40462 -70.79772 1571 ft 6 kts 15°
2026-05-06 13:33 -33.40412 -70.79770 1571 ft 5 kts 359°
2026-05-06 13:33 -33.40396 -70.79770 1571 ft 0 kts 359°